Regional Weather Roundup
Issued by NWS

Home | Current Version | Previous Version | Text Only | Print | Product List | Glossary Off
Versions: 1 2 3 4 5 6 7 8 9 10 11 12 13 14 15 16 17 18 19 20 21 22 23 24 25 26 27 28 29 30 31 32 33 34 35 36 37 38 39 40 41 42 43 44 45 46 47 48 49 50

000
ASUS45 KBOU 200907
RWRCO

WEATHER ROUNDUP FOR COLORADO
NATIONAL WEATHER SERVICE DENVER/BOULDER CO
300 AM MDT THU JUL 20 2017

NOTE: "FAIR" INDICATES FEW OR NO CLOUDS BELOW 12000 FEET WITH NO
SIGNIFICANT WEATHER AND/OR OBSTRUCTIONS TO VISIBILITY.

COZ001>005-013-030-031-201000-
...NORTHWEST COLORADO...

CITY           SKY/WX    TMP DP  RH WIND       PRES   REMARKS
CRAIG          FAIR      61  54  77 E5        30.28S
HAYDEN         FAIR      59  52  77 E12       30.30F
MEEKER         FAIR      61  56  83 NE10      30.29F
RABBIT EARS PA FAIR      50  45  81 S9        30.60F
STEAMBOAT SPGS MOCLDY    57  54  91 E6        30.34S
WALDEN         FAIR      54  48  82 SE6       30.42F
$$

COZ006>008-011-201000-
...WEST CENTRAL VALLEYS...

CITY           SKY/WX    TMP DP  RH WIND       PRES   REMARKS
GRAND JUNCTION FAIR      70  61  73 SE20      30.17R
MONTROSE       FAIR      65  60  84 E5        30.28R
EAGLE          RAIN      60  58  92 NE6       30.40F
RIFLE          FAIR      68  57  68 CALM      30.26F
DELTA          FAIR      73  57  56 E8        30.23F
NUCLA          FAIR      68  50  52 SE8       30.29S
$$

COZ017>023-064>068-201000-
...SOUTHWEST COLORADO...

CITY           SKY/WX    TMP DP  RH WIND       PRES   REMARKS
DURANGO        FAIR      68  45  43 VRB5      30.32R
CORTEZ         FAIR      65  57  75 VRB3      30.28R
PAGOSA SPRINGS FAIR      57  54  88 CALM      30.43R
TELLURIDE      CLOUDY    55  48  75 CALM      30.53R
WOLF CREEK PAS FAIR      50  39  66 SW9       30.77S
$$

COZ009-010-012-014-032>034-037-058>063-201000-
...CENTRAL COLORADO...

CITY           SKY/WX    TMP DP  RH WIND       PRES   REMARKS
ASPEN          FAIR      54  51  90 S5        30.47S
BUENA VISTA    FAIR      57  49  74 NW14      30.43S
COPPER MTN     FAIR      54  43  66 W16       30.75S
BERTHOUD PASS  FAIR      45  32  61 NW10      30.77S
COTTONWOOD PAS FAIR      61  43  51 SW12      30.56F
GUNNISON       FAIR      56  50  80 W7        30.46R
KREMMLING      MOCLDY    61  55  82 SW3       30.43S
LEADVILLE      FAIR      47  43  86 NE7       30.58S
MONARCH PASS   FAIR      52  36  54 W20       30.83S
SALIDA         FAIR      57  49  72 W6        30.47F
SUNLIGHT       FAIR      46  43  87 E7        30.66F
WILKERSON PASS FAIR      52  39  62 NE7       30.70F
$$

COZ069>075-201000-
...SAN LUIS VALLEY/SANGRE DE CRISTO MOUNTAINS...

CITY           SKY/WX    TMP DP  RH WIND       PRES   REMARKS
ALAMOSA        MOCLDY    58  52  80 SE6       30.38R
DEL NORTE      FAIR      62  46  55 SW12      30.42R
LA VETA PASS   NOT AVBL
SAGUACHE         N/A    N/A N/A N/A MISG        N/A
$$

COZ035-036-038>040-201000-
...NORTHERN COLORADO FRONT RANGE...

CITY           SKY/WX    TMP DP  RH WIND       PRES   REMARKS
DENVER INTL AP MOCLDY    68  54  60 N9        30.23R
DMNS CITY PARK   N/A     67  54  62 E2G9      30.24S
AURORA         PTCLDY    66  53  63 N5        30.26R
FRONT RANGE AP FAIR      70  57  64 N13G22    30.24S
ERIE MUNI ARPT FAIR      66  51  58 CALM      30.22R
BOULDER MUN AP FAIR      72  52  49 CALM      30.22R
CENTENNIAL     FAIR      69  53  56 N7        30.27R
BROOMFIELD     FAIR      70  50  49 SE5       30.26R
FORT COLLINS   FAIR      71  55  56 NE9       30.20R
LONGMONT       FAIR      67  53  61 CALM      30.22R
$$

COZ041-046-047-076>085-087-088-201000-
...PIKES PEAK/PALMER DIVIDE AND SOUTHERN FOOTHILLS...

CITY           SKY/WX    TMP DP  RH WIND       PRES   REMARKS
COLO. SPRINGS  FAIR      72  52  49 N16       30.26R
A. F. ACADEMY  FAIR      65  50  58 N10       30.29S
SCHRIEVER AFB  FAIR      69  49  48 N18G26    30.25S
CHEYENNE MTN   NOT AVBL
ELLICOTT       FAIR     N/A N/A N/A N14       30.23S
FALCON           N/A     67  48  50 N15       30.31S
FORT CARSON    FAIR      69  51  52 N9        30.21S
LIMON          FAIR      65  55  70 NW10      30.18F
MONUMENT HILL  FAIR      61  50  67 N8        30.36F
CANON CITY     PTCLDY    72  55  56 W13       30.17R
WALSENBURG     NOT AVBL
TRINIDAD       FAIR      74  47  38 W15       30.20S
$$

COZ042>045-048>051-090-091-201000-
...NORTHEAST COLORADO...

CITY           SKY/WX    TMP DP  RH WIND       PRES   REMARKS
GREELEY ARPT   FAIR      69  59  70 N9        30.18R
AKRON          FAIR      70  58  65 N13       30.13S
BURLINGTON     FAIR      70  57  63 S13       30.06F
WRAY           NOT AVBL
YUMA           FAIR      70  54  56 N10       30.07S
STERLING       FAIR      70  63  78 N9        30.10R
HOLYOKE        FAIR      73  59  60 N16G23    30.05F
FORT MORGAN    FAIR      69  57  65 N14       30.15R
$$

COZ086-089-092>099-201000-
...SOUTHEAST COLORADO...

CITY           SKY/WX    TMP DP  RH WIND       PRES   REMARKS
PUEBLO         FAIR      74  51  44 CALM      30.12R
LA JUNTA       FAIR      74  54  49 W15       30.07S
LAMAR          FAIR      74  55  51 S14       30.01F
SPRINGFIELD      N/A     70  56  61 S15       30.11F
$$



USA.gov is the U.S. government's official web portal to all federal, state and local government web resources and services.